�N����,����,�~����,�C��,���x,�C��,����,���ϕ���,�ő�u�ԕ���,�ő厞����,���˗�,�I�_���x,�n�����x
"22/02/01","01:00",0.0,1.6,90.8,1015.6,277.3,0.8,6.2,321.3,0.00,0.3,5.4
"22/02/01","02:00",0.0,1.8,91.0,1015.6,324.0,2.7,3.6,326.0,0.00,0.5,5.3
"22/02/01","03:00",0.0,0.7,91.9,1015.4,320.0,2.1,3.9,321.5,0.00,-0.4,5.4
"22/02/01","04:00",0.0,-0.5,93.5,1014.7,315.1,2.0,3.7,329.5,0.00,-1.4,5.3
"22/02/01","05:00",0.0,-1.7,94.7,1014.9,327.5,2.0,2.7,321.5,0.00,-2.4,5.1
"22/02/01","06:00",0.0,-1.8,95.6,1014.5,305.4,1.7,2.4,322.3,0.00,-2.4,4.9
"22/02/01","07:00",0.0,-2.0,96.5,1014.7,305.3,2.2,2.8,322.3,0.00,-2.4,4.6
"22/02/01","08:00",0.0,-1.6,97.3,1014.5,300.3,1.2,2.8,322.5,0.01,-1.9,4.5
"22/02/01","09:00",0.0,1.7,97.2,1015.6,217.9,0.2,2.4,327.3,0.26,1.3,4.2
"22/02/01","10:00",0.0,3.6,94.5,1016.4,0.0,0.0,1.2,267.5,1.13,2.8,4.3
"22/02/01","11:00",0.0,6.2,78.3,1016.6,193.2,1.0,2.8,231.5,1.91,2.7,4.7
"22/02/01","12:00",0.0,7.7,67.6,1015.4,270.3,1.1,3.5,243.9,1.49,2.1,5.0
"22/02/01","13:00",0.0,9.3,57.1,1013.8,269.9,4.1,6.7,297.7,1.47,1.3,5.4
"22/02/01","14:00",0.0,9.7,53.6,1012.8,317.2,2.7,7.9,323.6,1.28,0.8,5.8
"22/02/01","15:00",0.0,9.0,59.1,1012.3,292.7,3.7,8.2,306.8,1.31,1.5,6.1
"22/02/01","16:00",0.0,8.5,63.4,1012.6,286.8,4.0,8.1,327.9,0.56,2.0,6.4
"22/02/01","17:00",0.0,6.7,75.9,1012.1,287.8,3.2,7.3,270.4,0.16,2.8,6.5
"22/02/01","18:00",0.0,6.3,78.1,1012.1,293.4,3.0,6.2,254.0,0.01,2.8,6.6
"22/02/01","19:00",0.0,5.3,79.5,1013.0,282.1,3.5,9.1,322.2,0.00,2.1,6.5
"22/02/01","20:00",0.0,4.7,74.0,1014.5,308.5,2.8,9.7,319.9,0.00,0.5,6.4
"22/02/01","21:00",0.0,4.2,69.7,1014.2,303.0,3.9,7.5,324.9,0.00,-0.8,6.1
"22/02/01","22:00",0.0,4.2,62.3,1014.0,308.4,5.1,10.4,338.0,0.00,-2.3,6.1
"22/02/01","23:00",0.0,4.1,62.5,1014.2,313.8,5.5,8.5,316.5,0.00,-2.4,5.9
"22/02/01","24:00",0.0,3.7,67.3,1014.5,297.6,4.6,10.2,313.2,0.00,-1.8,5.8
"22/02/02","01:00",0.0,2.9,71.2,1014.7,306.4,3.5,8.6,336.4,0.00,-1.8,5.5
"22/02/02","02:00",0.0,2.4,74.6,1014.2,283.8,3.2,6.4,259.5,0.00,-1.6,5.4
"22/02/02","03:00",0.0,2.3,78.4,1014.9,308.7,4.7,9.4,321.7,0.00,-1.0,5.4
"22/02/02","04:00",0.0,2.2,82.1,1015.6,314.4,2.1,9.0,320.4,0.00,-0.5,5.2
"22/02/02","05:00",0.2,1.8,88.6,1015.4,289.8,3.4,7.1,318.2,0.00,0.2,5.0
"22/02/02","06:00",0.0,1.8,91.4,1015.6,307.6,3.4,6.3,306.2,0.00,0.6,5.2
"22/02/02","07:00",0.0,1.0,92.9,1015.9,191.6,2.3,6.4,262.7,0.00,0.0,4.8
"22/02/02","08:00",0.0,0.5,94.0,1017.1,330.0,1.2,4.7,221.0,0.01,-0.3,4.9
"22/02/02","09:00",0.2,3.4,94.5,1018.5,273.1,0.6,3.4,311.3,0.37,2.6,4.7
"22/02/02","10:00",0.0,5.4,91.4,1019.9,247.1,0.7,1.3,227.5,1.17,4.2,4.8
"22/02/02","11:00",0.0,7.3,74.8,1020.1,263.6,1.7,3.4,121.9,2.17,3.2,5.1
"22/02/02","12:00",0.0,7.4,65.6,1019.0,297.2,3.7,6.0,337.6,2.09,1.4,5.5
"22/02/02","13:00",0.0,8.1,59.7,1018.0,295.7,2.5,5.6,309.4,1.80,0.8,6.1
"22/02/02","14:00",0.0,8.7,53.9,1016.8,285.0,2.8,7.4,338.8,1.64,-0.1,6.4
"22/02/02","15:00",0.0,9.0,52.6,1016.4,274.0,1.1,6.7,258.8,0.99,-0.1,7.0
"22/02/02","16:00",0.0,8.7,59.4,1016.4,21.8,0.7,3.2,344.8,0.56,1.3,7.1
"22/02/02","17:00",0.0,7.9,63.0,1016.6,317.1,1.8,3.1,318.3,0.24,1.3,6.9
"22/02/02","18:00",0.0,6.4,72.2,1015.9,293.8,2.0,3.5,327.6,0.01,1.8,7.2
"22/02/02","19:00",0.0,4.7,77.0,1016.1,320.7,3.5,5.2,328.7,0.00,1.1,6.9
"22/02/02","20:00",0.0,3.1,84.3,1016.1,304.9,3.1,6.5,323.5,0.00,0.8,6.8
"22/02/02","21:00",0.0,1.6,86.5,1016.1,320.1,2.1,4.8,320.1,0.00,-0.4,6.7
"22/02/02","22:00",0.0,0.4,89.4,1015.6,314.6,1.3,2.5,324.8,0.00,-1.1,6.4
"22/02/02","23:00",0.0,-0.1,91.8,1015.6,299.0,1.5,2.5,322.1,0.00,-1.2,6.2
"22/02/02","24:00",0.0,-0.4,93.4,1015.2,310.4,1.0,2.2,311.0,0.00,-1.3,6.0
"22/02/03","01:00",0.0,-1.3,94.5,1014.7,314.2,0.7,2.6,321.2,0.00,-2.0,5.7
"22/02/03","02:00",0.0,-1.5,95.5,1014.2,307.5,0.8,2.0,321.2,0.00,-2.1,5.6
"22/02/03","03:00",0.0,0.2,95.2,1014.2,250.7,1.7,3.9,315.7,0.00,-0.4,5.2
"22/02/03","04:00",0.0,-1.2,95.5,1014.0,326.3,0.8,3.2,323.4,0.00,-1.8,5.2
"22/02/03","05:00",0.0,-0.2,95.6,1014.2,268.1,0.8,2.9,337.5,0.00,-0.8,4.8
"22/02/03","06:00",0.0,0.4,95.4,1014.7,317.6,1.7,3.1,323.7,0.00,-0.2,4.8
"22/02/03","07:00",0.0,0.6,95.3,1014.7,318.8,2.0,2.8,318.4,0.00,0.0,4.6
"22/02/03","08:00",0.0,0.7,95.4,1015.4,320.4,1.8,2.8,317.8,0.00,0.1,4.6
"22/02/03","09:00",0.0,2.0,95.2,1015.9,306.6,1.7,2.8,322.7,0.13,1.4,4.6
"22/02/03","10:00",0.0,4.6,89.5,1016.8,290.0,3.0,5.2,316.2,0.59,3.1,4.8
"22/02/03","11:00",0.0,7.5,67.3,1016.8,281.0,2.0,5.4,326.4,1.35,1.9,5.0
"22/02/03","12:00",0.0,8.8,54.5,1015.6,277.0,3.2,5.9,259.3,2.16,0.2,5.2
"22/02/03","13:00",0.0,8.2,53.0,1014.9,278.9,3.9,7.4,300.4,2.34,-0.8,5.7
"22/02/03","14:00",0.0,8.4,56.0,1014.5,320.7,2.7,7.2,327.1,1.02,0.2,6.1
"22/02/03","15:00",0.0,7.9,56.4,1014.0,328.9,2.8,10.1,340.3,1.62,-0.2,6.4
"22/02/03","16:00",0.0,9.6,49.7,1013.8,311.6,3.0,7.9,331.1,1.33,-0.3,6.5
"22/02/03","17:00",0.0,6.8,57.3,1014.2,323.4,3.2,10.8,350.6,0.28,-1.0,6.7
"22/02/03","18:00",0.0,6.0,58.1,1015.2,318.8,3.5,6.5,330.6,0.03,-1.6,6.8
"22/02/03","19:00",0.0,5.3,64.4,1014.9,316.7,4.7,8.3,332.3,0.00,-0.8,6.5
"22/02/03","20:00",0.0,3.8,68.7,1014.2,272.3,0.7,7.1,317.5,0.00,-1.4,6.6
"22/02/03","21:00",0.0,3.5,73.7,1014.0,323.2,1.7,3.2,314.3,0.00,-0.7,6.4
"22/02/03","22:00",0.0,3.0,77.9,1013.8,318.9,2.6,3.2,313.6,0.00,-0.4,6.2
"22/02/03","23:00",0.0,3.7,78.2,1014.2,301.8,2.7,6.5,307.6,0.00,0.3,6.4
"22/02/03","24:00",0.0,3.5,79.9,1014.0,300.6,3.6,5.7,313.7,0.00,0.4,5.8
"22/02/04","01:00",0.0,3.0,83.5,1014.0,296.3,3.2,5.8,319.1,0.00,0.5,5.9
"22/02/04","02:00",0.0,3.2,84.6,1013.0,302.5,3.2,5.6,327.9,0.00,0.9,5.8
"22/02/04","03:00",0.0,2.7,85.1,1012.8,310.6,4.0,6.0,326.9,0.00,0.5,5.6
"22/02/04","04:00",0.0,2.1,87.2,1012.1,324.4,4.5,7.4,325.6,0.00,0.2,5.5
"22/02/04","05:00",0.0,2.0,88.3,1011.4,323.1,4.2,7.0,342.1,0.00,0.3,5.7
"22/02/04","06:00",0.0,1.9,88.8,1012.6,309.3,4.0,5.9,312.5,0.00,0.3,5.2
"22/02/04","07:00",0.0,2.1,87.6,1012.6,314.9,4.2,6.0,326.2,0.00,0.3,5.2
"22/02/04","08:00",0.0,2.1,87.8,1013.0,299.0,2.7,6.4,321.0,0.01,0.3,5.2
"22/02/04","09:00",0.0,4.0,83.6,1013.3,299.9,3.1,6.7,323.9,0.39,1.5,5.2
"22/02/04","10:00",0.0,5.5,76.1,1013.5,275.9,2.5,6.0,328.1,1.12,1.7,5.2
"22/02/04","11:00",0.0,6.8,68.8,1013.8,308.7,2.7,6.4,321.7,2.02,1.5,5.4
"22/02/04","12:00",0.0,7.7,58.6,1012.8,317.1,3.5,8.3,320.2,2.64,0.1,5.7
"22/02/04","13:00",0.0,9.6,49.9,1011.6,298.0,3.1,7.4,310.8,2.38,-0.3,6.2
"22/02/04","14:00",0.0,8.9,45.1,1010.4,265.1,3.9,7.9,263.1,2.60,-2.3,6.9
"22/02/04","15:00",0.0,10.6,40.9,1009.5,324.0,3.1,8.7,340.4,1.39,-2.1,7.0
"22/02/04","16:00",0.0,8.9,43.1,1009.3,335.7,3.7,7.7,329.2,1.04,-2.9,7.2
"22/02/04","17:00",0.0,8.1,45.6,1009.7,314.0,3.7,6.5,338.9,0.23,-2.9,7.5
"22/02/04","18:00",0.0,7.1,50.4,1009.3,320.3,4.0,7.5,316.7,0.00,-2.5,7.4
"22/02/04","19:00",0.0,6.1,61.3,1009.7,306.7,4.0,6.2,334.4,0.00,-0.7,7.2
"22/02/04","20:00",0.0,5.3,63.6,1009.3,287.7,1.8,5.2,316.7,0.00,-1.0,6.9
"22/02/04","21:00",0.0,3.9,69.3,1009.3,274.8,2.2,4.1,314.4,0.00,-1.2,6.7
"22/02/04","22:00",0.0,3.6,68.8,1009.3,284.1,2.3,5.9,272.3,0.00,-1.5,6.4
"22/02/04","23:00",0.0,1.8,74.7,1008.6,306.1,2.1,3.5,313.8,0.00,-2.2,6.4
"22/02/04","24:00",0.0,2.4,71.7,1008.8,290.1,3.2,5.8,315.6,0.00,-2.1,6.2
"22/02/05","01:00",0.0,1.9,66.6,1008.3,298.8,3.2,6.4,310.7,0.00,-3.6,6.0
"22/02/05","02:00",0.0,0.4,71.6,1007.8,305.7,2.6,5.6,316.1,0.00,-4.1,5.7
"22/02/05","03:00",0.0,0.7,72.7,1007.4,321.2,3.5,6.8,314.1,0.00,-3.6,5.6
"22/02/05","04:00",0.0,-0.1,75.5,1007.1,328.8,2.8,5.5,346.9,0.00,-3.9,5.2
"22/02/05","05:00",0.0,-1.5,78.6,1006.7,345.8,0.8,3.5,330.0,0.00,-4.7,5.1
"22/02/05","06:00",0.0,-1.3,82.6,1006.9,305.3,1.7,3.2,284.8,0.00,-3.8,5.1
"22/02/05","07:00",0.0,-1.8,84.5,1007.4,312.3,2.1,3.3,324.2,0.00,-4.0,4.8
"22/02/05","08:00",0.0,0.5,82.6,1008.6,271.6,2.1,4.2,314.4,0.00,-2.1,4.5
"22/02/05","09:00",0.0,2.3,70.1,1010.2,283.5,2.6,5.4,305.5,0.34,-2.5,4.4
"22/02/05","10:00",0.0,3.1,62.5,1010.2,294.5,2.8,7.8,307.8,0.63,-3.3,4.5
"22/02/05","11:00",0.0,4.7,54.4,1011.2,311.6,4.1,10.9,350.5,1.91,-3.7,4.5
"22/02/05","12:00",0.0,4.6,59.8,1010.0,314.1,4.4,12.6,318.5,0.99,-2.5,4.8
"22/02/05","13:00",0.0,5.0,55.4,1009.5,285.9,4.1,12.3,329.1,1.79,-3.1,5.1
"22/02/05","14:00",0.0,5.1,54.2,1008.6,306.0,4.2,9.6,328.0,2.21,-3.3,5.2
"22/02/05","15:00",0.0,5.1,52.4,1008.8,325.0,7.4,12.6,321.2,1.84,-3.8,5.4
"22/02/05","16:00",0.0,5.0,51.8,1009.0,306.4,6.4,14.8,325.3,1.30,-4.0,6.0
"22/02/05","17:00",0.0,4.1,55.3,1009.5,310.5,4.2,9.8,316.8,0.43,-4.0,5.8
"22/02/05","18:00",0.0,3.3,57.0,1009.5,322.1,5.2,9.6,325.8,0.02,-4.4,5.9
"22/02/05","19:00",0.0,2.5,59.4,1009.7,318.9,5.2,11.3,316.2,0.00,-4.6,5.7
"22/02/05","20:00",0.0,1.7,62.2,1010.0,305.8,3.7,8.5,324.2,0.00,-4.7,5.4
"22/02/05","21:00",0.0,1.6,61.2,1010.2,299.6,4.0,7.7,314.5,0.00,-5.0,5.3
"22/02/05","22:00",0.0,1.0,61.7,1010.9,305.2,3.5,6.7,325.7,0.00,-5.5,5.0
"22/02/05","23:00",0.0,0.7,58.5,1010.7,296.3,2.8,7.0,308.2,0.00,-6.5,4.9
"22/02/05","24:00",0.0,0.3,63.7,1011.4,275.8,3.6,5.9,252.3,0.00,-5.7,4.8
"22/02/06","01:00",0.0,0.1,66.7,1010.9,293.2,4.0,7.8,343.5,0.00,-5.3,4.5
"22/02/06","02:00",0.0,-0.1,68.7,1010.0,294.1,3.9,7.1,321.4,0.00,-5.1,4.5
"22/02/06","03:00",0.0,-0.2,69.8,1010.4,288.9,2.8,6.7,327.2,0.00,-5.0,4.3
"22/02/06","04:00",0.0,-0.5,71.3,1010.7,273.4,3.1,5.6,320.5,0.00,-5.0,4.2
"22/02/06","05:00",0.0,-0.7,73.7,1010.9,291.5,3.6,7.1,303.8,0.00,-4.8,4.2
"22/02/06","06:00",0.0,-0.6,75.6,1011.6,292.8,2.8,7.1,319.8,0.00,-4.3,4.0
"22/02/06","07:00",0.0,-0.7,76.9,1011.9,290.3,2.6,5.9,335.4,0.00,-4.2,3.7
"22/02/06","08:00",0.0,-0.4,78.8,1012.6,304.5,3.1,5.4,298.9,0.00,-3.6,3.8
"22/02/06","09:00",0.0,0.8,79.8,1013.5,299.3,3.9,6.4,320.5,0.23,-2.2,3.8
"22/02/06","10:00",0.0,2.1,76.5,1013.8,277.9,4.0,7.5,317.5,0.98,-1.6,3.6
"22/02/06","11:00",0.0,4.6,66.2,1014.2,303.8,4.5,8.2,305.0,2.10,-1.1,3.9
"22/02/06","12:00",0.0,5.3,62.2,1014.0,286.9,4.0,12.4,330.7,2.61,-1.3,4.2
"22/02/06","13:00",0.0,5.2,54.1,1013.0,323.2,5.6,12.6,336.5,1.99,-3.3,4.7
"22/02/06","14:00",0.0,5.6,55.4,1012.8,323.5,4.9,12.7,321.9,1.76,-2.6,5.0
"22/02/06","15:00",0.0,4.1,70.8,1013.0,324.1,4.5,10.1,314.4,0.93,-0.7,5.2
"22/02/06","16:00",0.0,4.9,63.6,1013.3,316.2,5.2,11.2,327.7,0.92,-1.4,5.7
"22/02/06","17:00",0.0,3.2,69.0,1013.8,302.3,5.9,12.8,308.6,0.28,-1.9,5.4
"22/02/06","18:00",0.0,2.6,68.3,1014.0,302.9,3.9,10.5,321.3,0.02,-2.6,5.5
"22/02/06","19:00",0.0,2.4,70.8,1014.9,297.2,4.0,6.6,312.7,0.00,-2.3,5.2
"22/02/06","20:00",0.0,1.7,74.4,1014.7,310.1,2.5,6.7,323.1,0.00,-2.3,5.1
"22/02/06","21:00",0.0,1.5,78.4,1015.4,300.6,3.0,5.9,327.9,0.00,-1.8,4.9
"22/02/06","22:00",0.0,1.4,80.1,1015.9,315.0,2.7,7.7,334.0,0.00,-1.6,4.8
"22/02/06","23:00",0.0,1.4,81.4,1016.6,297.5,2.7,4.5,319.9,0.00,-1.4,4.9
"22/02/06","24:00",0.0,0.9,82.5,1016.6,314.7,2.8,5.8,335.5,0.00,-1.7,4.9
"22/02/07","01:00",0.0,0.5,84.5,1016.6,297.2,3.0,6.6,310.1,0.00,-1.8,4.7
"22/02/07","02:00",0.0,0.3,85.0,1017.1,281.1,1.5,5.4,338.6,0.00,-1.9,4.6
"22/02/07","03:00",0.0,0.5,85.6,1017.1,317.9,1.8,3.7,308.6,0.00,-1.6,4.4
"22/02/07","04:00",0.0,0.2,86.9,1016.6,304.0,2.8,5.5,243.0,0.00,-1.7,4.5
"22/02/07","05:00",0.0,0.4,88.0,1016.8,290.1,3.2,6.0,308.6,0.00,-1.3,4.2
"22/02/07","06:00",0.0,-0.1,88.7,1016.6,301.8,2.8,5.2,312.7,0.00,-1.7,4.0
"22/02/07","07:00",0.0,0.5,89.0,1017.5,304.8,3.2,5.5,315.1,0.00,-1.1,4.0
"22/02/07","08:00",0.0,0.9,88.4,1018.2,281.0,2.7,5.8,331.7,0.00,-0.8,3.9
"22/02/07","09:00",0.0,2.8,83.7,1019.9,284.2,2.8,7.2,330.3,0.40,0.4,4.0
"22/02/07","10:00",0.0,4.4,75.2,1020.6,289.1,3.4,5.6,307.1,1.35,0.4,4.1
"22/02/07","11:00",0.0,6.3,66.2,1020.8,341.1,1.6,5.8,335.0,2.01,0.5,4.3
"22/02/07","12:00",0.0,7.1,57.6,1020.4,279.5,3.4,6.2,329.7,2.51,-0.7,4.8
"22/02/07","13:00",0.0,6.9,55.4,1019.2,318.8,2.5,5.5,305.4,2.51,-1.4,5.3
"22/02/07","14:00",0.0,6.6,56.5,1018.5,307.8,3.9,7.7,326.9,1.37,-1.4,5.7
"22/02/07","15:00",0.0,8.8,50.7,1017.8,334.1,2.3,6.7,341.2,1.65,-0.8,6.0
"22/02/07","16:00",0.0,7.6,53.6,1018.2,327.4,2.5,5.9,326.1,1.10,-1.2,6.2
"22/02/07","17:00",0.0,6.8,58.9,1018.5,331.0,2.6,5.0,338.4,0.30,-0.6,6.5
"22/02/07","18:00",0.0,5.3,63.9,1018.0,325.0,2.1,5.2,327.2,0.03,-0.9,6.6
"22/02/07","19:00",0.0,3.2,72.4,1018.0,303.0,2.0,3.9,335.5,0.00,-1.2,6.6
"22/02/07","20:00",0.0,2.8,76.4,1019.2,326.1,2.2,4.2,328.7,0.00,-0.9,6.4
"22/02/07","21:00",0.0,2.0,79.5,1018.2,313.7,1.5,3.9,314.6,0.00,-1.1,6.0
"22/02/07","22:00",0.0,2.2,83.2,1018.5,308.3,2.0,3.2,322.6,0.00,-0.3,5.9
"22/02/07","23:00",0.0,1.9,85.0,1017.8,304.3,1.8,3.4,317.5,0.00,-0.3,5.9
"22/02/07","24:00",0.0,2.2,85.9,1018.0,292.4,1.1,3.2,312.7,0.00,0.1,5.8
"22/02/08","01:00",0.0,2.1,86.9,1018.5,313.7,2.1,2.8,323.8,0.00,0.2,5.5
"22/02/08","02:00",0.0,2.4,87.1,1018.0,307.5,2.7,4.0,321.8,0.00,0.5,5.4
"22/02/08","03:00",0.0,2.3,87.3,1018.0,290.3,2.0,2.9,316.3,0.00,0.4,5.4
"22/02/08","04:00",0.0,2.3,87.8,1017.1,312.8,2.3,3.4,323.9,0.00,0.5,5.5
"22/02/08","05:00",0.0,2.1,88.4,1016.6,320.5,2.1,3.4,314.2,0.00,0.4,5.3
"22/02/08","06:00",0.0,1.9,89.2,1017.1,313.7,2.2,3.2,311.2,0.00,0.4,5.3
"22/02/08","07:00",0.0,1.9,89.5,1018.0,282.5,1.0,4.5,321.8,0.00,0.4,5.1
"22/02/08","08:00",0.0,2.4,89.8,1018.0,304.6,2.7,4.4,321.7,0.00,0.9,5.3
"22/02/08","09:00",0.0,4.3,88.4,1018.7,288.5,1.1,3.6,321.8,0.32,2.6,5.3
"22/02/08","10:00",0.0,5.8,78.6,1019.9,124.4,0.6,3.3,324.0,0.85,2.4,5.1
"22/02/08","11:00",0.0,7.0,69.8,1019.7,128.5,1.1,2.7,202.7,1.55,1.9,5.6
"22/02/08","12:00",0.0,8.9,61.2,1019.0,137.7,1.8,4.8,136.8,2.65,1.9,5.7
"22/02/08","13:00",0.0,10.7,53.7,1017.3,204.8,1.8,4.0,224.5,2.95,1.7,6.6
"22/02/08","14:00",0.0,10.9,51.6,1016.4,326.5,1.8,3.7,177.3,2.23,1.4,7.1
"22/02/08","15:00",0.0,9.8,53.2,1015.9,266.0,1.0,5.8,217.0,1.00,0.8,7.5
"22/02/08","16:00",0.0,9.2,60.1,1015.4,108.4,1.3,3.4,252.5,0.15,1.9,7.9
"22/02/08","17:00",0.0,8.5,63.3,1015.9,92.6,1.1,2.8,97.3,0.01,2.0,7.5
"22/02/08","18:00",0.6,6.5,74.5,1017.1,316.7,2.1,3.4,319.3,0.00,2.3,7.5
"22/02/08","19:00",0.2,5.8,86.8,1017.8,319.9,2.7,4.1,329.4,0.00,3.8,7.4
"22/02/08","20:00",0.0,5.0,90.9,1018.2,320.8,2.5,3.4,330.8,0.00,3.7,7.4
"22/02/08","21:00",0.0,3.5,93.2,1018.7,322.7,2.7,4.1,317.2,0.00,2.5,7.2
"22/02/08","22:00",0.0,3.6,94.3,1018.5,299.7,3.7,4.9,310.9,0.00,2.8,7.2
"22/02/08","23:00",0.0,2.3,95.2,1018.2,303.3,2.1,4.1,308.8,0.00,1.7,6.8
"22/02/08","24:00",0.0,1.9,95.9,1017.5,315.7,2.8,3.7,324.7,0.00,1.4,6.7
"22/02/09","01:00",0.0,2.0,96.5,1017.5,310.0,3.1,5.1,321.4,0.00,1.5,6.4
"22/02/09","02:00",0.0,1.6,96.9,1017.3,295.9,1.6,5.6,324.6,0.00,1.2,6.2
"22/02/09","03:00",0.0,0.8,97.4,1017.8,302.6,1.3,3.6,322.8,0.00,0.5,6.0
"22/02/09","04:00",0.0,1.2,97.9,1017.5,328.1,2.5,3.3,332.2,0.00,0.9,6.0
"22/02/09","05:00",0.0,0.8,97.5,1017.8,263.4,0.2,3.2,322.8,0.00,0.5,5.9
"22/02/09","06:00",0.0,0.7,97.6,1017.8,332.1,0.6,3.3,308.2,0.00,0.4,5.6
"22/02/09","07:00",0.0,-0.3,98.0,1017.8,0.0,0.0,0.6,347.4,0.00,-0.5,5.5
"22/02/09","08:00",0.0,1.1,98.4,1018.7,283.5,1.8,4.4,321.5,0.01,0.9,5.3
"22/02/09","09:00",0.2,3.7,97.1,1019.7,0.0,0.0,2.5,319.9,0.41,3.3,5.2
"22/02/09","10:00",0.0,6.6,70.1,1021.1,340.0,3.9,7.3,342.2,1.29,1.6,5.3
"22/02/09","11:00",0.0,7.9,55.2,1020.8,347.2,3.5,8.6,347.4,2.10,-0.5,5.5
"22/02/09","12:00",0.0,9.6,47.8,1019.9,352.9,1.6,6.6,246.1,2.70,-0.9,5.6
"22/02/09","13:00",0.0,10.1,45.3,1018.7,355.2,2.3,7.1,342.8,2.99,-1.2,6.3
"22/02/09","14:00",0.0,10.3,45.7,1018.0,327.2,4.0,6.8,328.9,2.75,-0.9,7.0
"22/02/09","15:00",0.0,10.5,43.7,1017.5,325.2,3.6,7.2,347.6,2.21,-1.3,7.4
"22/02/09","16:00",0.0,10.3,45.1,1017.3,335.9,3.5,7.9,324.6,1.56,-1.0,7.8
"22/02/09","17:00",0.0,8.3,50.6,1017.8,341.6,4.0,7.9,339.5,0.61,-1.3,7.8
"22/02/09","18:00",0.0,6.2,59.2,1017.5,336.5,3.6,7.9,339.0,0.06,-1.1,7.8
"22/02/09","19:00",0.0,4.9,64.7,1017.8,326.2,4.1,7.8,343.8,0.00,-1.1,7.6
"22/02/09","20:00",0.0,3.7,68.8,1017.1,270.7,2.3,6.6,329.8,0.00,-1.5,7.2
"22/02/09","21:00",0.0,2.7,73.0,1016.8,313.8,1.1,4.0,321.5,0.00,-1.6,7.2
"22/02/09","22:00",0.0,2.3,76.7,1015.9,308.7,3.6,5.2,319.9,0.00,-1.3,6.8
"22/02/09","23:00",0.0,3.2,76.0,1015.9,316.5,4.0,6.0,322.5,0.00,-0.6,6.6
"22/02/09","24:00",0.0,2.7,77.9,1015.9,331.2,3.0,5.4,328.9,0.00,-0.7,6.4
"22/02/10","01:00",0.0,2.7,80.0,1015.4,311.9,3.0,5.0,322.6,0.00,-0.4,6.2
"22/02/10","02:00",0.0,2.9,80.2,1015.2,296.0,3.1,6.0,322.9,0.00,-0.1,6.1
"22/02/10","03:00",0.0,3.1,79.2,1015.2,321.8,3.6,6.8,325.6,0.00,-0.1,6.0
"22/02/10","04:00",0.0,2.8,80.3,1014.2,292.1,2.8,5.7,326.5,0.00,-0.2,6.1
"22/02/10","05:00",0.0,2.8,81.0,1014.0,320.5,1.7,6.3,326.1,0.00,-0.1,6.0
"22/02/10","06:00",0.0,2.7,83.0,1014.0,309.2,3.6,5.7,325.6,0.00,0.1,5.7
"22/02/10","07:00",0.0,2.7,84.7,1014.0,322.2,2.5,4.7,317.8,0.00,0.4,5.8
"22/02/10","08:00",0.0,2.7,85.4,1014.0,299.9,1.6,5.5,324.9,0.00,0.5,5.8
"22/02/10","09:00",0.0,4.2,85.6,1014.2,299.9,2.1,3.5,324.0,0.18,2.0,5.7
"22/02/10","10:00",0.0,6.7,75.8,1014.2,294.7,2.0,4.4,315.6,0.76,2.8,5.7
"22/02/10","11:00",0.0,8.0,68.7,1014.2,167.5,1.6,3.3,226.6,1.29,2.6,5.9
"22/02/10","12:00",0.0,9.1,64.8,1013.3,256.4,1.3,3.7,255.2,1.09,2.9,6.2
"22/02/10","13:00",0.0,9.0,62.4,1012.8,339.7,2.0,4.9,320.7,1.05,2.2,6.6
"22/02/10","14:00",0.0,8.2,66.5,1012.1,331.7,2.2,4.5,347.3,0.74,2.4,6.8
"22/02/10","15:00",0.0,8.6,62.8,1012.1,270.2,2.1,3.6,346.1,1.00,2.0,6.9
"22/02/10","16:00",0.0,10.2,52.5,1011.9,339.1,2.0,4.8,302.5,1.17,1.0,7.5
"22/02/10","17:00",0.0,8.1,56.5,1011.9,328.5,4.0,7.7,341.7,0.50,0.0,7.5
"22/02/10","18:00",0.0,7.3,60.5,1012.1,319.2,4.2,6.7,310.8,0.05,0.2,7.6
"22/02/10","19:00",0.0,6.6,66.3,1012.3,331.6,3.0,7.8,341.1,0.00,0.8,7.4
"22/02/10","20:00",0.0,6.0,73.0,1012.8,310.6,3.9,9.3,308.6,0.00,1.6,7.1
"22/02/10","21:00",0.0,5.5,76.6,1013.3,324.0,4.9,8.7,329.7,0.00,1.8,7.1
"22/02/10","22:00",0.0,4.9,81.9,1013.3,329.1,6.0,9.1,318.2,0.00,2.1,6.9
"22/02/10","23:00",0.0,4.6,85.0,1013.0,315.1,5.2,10.3,319.7,0.00,2.3,6.4
"22/02/10","24:00",0.0,4.2,86.0,1013.8,329.9,4.5,8.0,339.3,0.00,2.1,6.4
"22/02/11","01:00",0.0,3.9,87.8,1013.5,329.2,3.4,6.8,328.4,0.00,2.1,6.5
"22/02/11","02:00",0.0,2.7,90.0,1013.3,328.5,2.2,5.9,322.9,0.00,1.3,6.2
"22/02/11","03:00",0.0,2.3,92.6,1013.8,318.9,2.7,4.8,311.7,0.00,1.3,6.1
"22/02/11","04:00",0.0,2.5,93.5,1013.8,311.2,1.6,7.2,336.3,0.00,1.6,6.0
"22/02/11","05:00",0.0,0.5,94.6,1014.0,312.4,1.2,3.2,330.4,0.00,-0.2,5.9
"22/02/11","06:00",0.0,0.1,95.5,1013.5,295.5,1.0,2.7,330.4,0.00,-0.5,5.6
"22/02/11","07:00",0.0,-0.3,96.0,1014.9,293.4,1.2,3.9,321.6,0.00,-0.8,5.6
"22/02/11","08:00",0.0,0.2,97.0,1015.4,302.7,1.6,2.7,304.4,0.01,-0.2,5.1
"22/02/11","09:00",0.0,3.7,96.5,1017.3,147.9,0.6,2.2,327.2,0.36,3.2,5.4
"22/02/11","10:00",0.0,6.0,93.8,1018.5,223.2,0.8,1.7,185.2,1.32,5.1,5.3
"22/02/11","11:00",0.0,9.4,70.7,1018.7,18.8,2.1,7.7,350.1,2.18,4.4,5.5
"22/02/11","12:00",0.0,10.3,54.5,1018.5,325.5,4.9,9.7,334.5,2.59,1.6,5.9
"22/02/11","13:00",0.0,11.2,50.4,1017.3,332.3,3.9,9.8,334.0,3.00,1.3,6.5
"22/02/11","14:00",0.0,11.6,48.5,1017.3,346.2,3.1,8.9,302.1,2.65,1.2,7.2
"22/02/11","15:00",0.0,10.0,55.1,1017.1,325.6,3.6,7.8,318.2,1.58,1.4,7.3
"22/02/11","16:00",0.0,9.7,60.1,1017.5,343.3,3.9,7.5,309.8,0.71,2.4,7.7
"22/02/11","17:00",0.0,9.3,58.5,1018.5,342.0,3.5,8.1,317.8,0.57,1.6,7.7
"22/02/11","18:00",0.0,7.6,59.6,1019.0,322.2,4.6,7.9,325.4,0.04,0.3,7.7
"22/02/11","19:00",0.0,5.3,68.6,1019.0,324.0,3.0,5.9,341.4,0.00,0.0,7.3
"22/02/11","20:00",0.0,5.4,72.9,1019.0,311.1,3.0,7.4,333.6,0.00,1.0,7.5
"22/02/11","21:00",0.0,4.2,74.5,1019.0,306.6,1.6,5.1,343.8,0.00,0.1,7.2
"22/02/11","22:00",0.0,2.1,81.0,1018.2,292.5,2.0,3.3,332.3,0.00,-0.8,7.0
"22/02/11","23:00",0.0,1.5,86.3,1018.0,304.6,1.7,4.5,324.0,0.00,-0.5,6.7
"22/02/11","24:00",0.0,1.5,88.4,1018.0,320.8,3.4,4.4,319.5,0.00,-0.2,6.3
"22/02/12","01:00",0.0,0.6,90.0,1017.8,285.6,1.5,5.2,326.3,0.00,-0.8,6.2
"22/02/12","02:00",0.0,0.9,91.2,1017.8,297.0,2.7,4.0,311.5,0.00,-0.3,5.9
"22/02/12","03:00",0.0,0.2,91.9,1017.8,326.6,1.5,3.9,328.0,0.00,-0.9,6.0
"22/02/12","04:00",0.0,-1.1,93.1,1016.8,307.2,1.1,3.3,339.0,0.00,-2.0,5.7
"22/02/12","05:00",0.0,-0.7,93.8,1017.3,334.7,1.7,2.7,327.5,0.00,-1.5,5.3
"22/02/12","06:00",0.0,0.2,94.4,1018.0,326.1,2.6,4.5,322.8,0.00,-0.6,5.2
"22/02/12","07:00",0.0,-0.8,94.8,1018.5,323.3,1.1,4.0,323.7,0.00,-1.5,5.2
"22/02/12","08:00",0.0,0.7,95.0,1019.2,302.0,2.2,4.2,317.8,0.00,0.0,5.0
"22/02/12","09:00",0.0,3.0,93.6,1020.8,262.0,1.6,4.1,339.1,0.40,2.1,4.8
"22/02/12","10:00",0.0,5.6,86.9,1021.1,237.7,0.7,1.6,218.5,1.24,3.6,5.0
"22/02/12","11:00",0.0,7.6,73.0,1021.1,191.7,1.3,2.7,237.3,2.01,3.1,5.3
"22/02/12","12:00",0.0,9.8,64.5,1020.1,184.4,1.1,2.5,127.6,2.56,3.5,5.7
"22/02/12","13:00",0.0,12.2,51.0,1019.0,199.4,1.6,4.1,223.1,2.89,2.4,6.4
"22/02/12","14:00",0.0,12.7,42.2,1018.2,200.4,2.2,5.7,224.9,2.81,0.2,6.9
"22/02/12","15:00",0.0,13.4,38.3,1017.8,192.6,2.0,4.4,175.5,2.16,-0.5,7.7
"22/02/12","16:00",0.0,13.4,39.7,1018.2,334.2,3.0,5.8,324.6,1.40,0.0,8.2
"22/02/12","17:00",0.0,12.6,42.0,1018.0,357.1,2.2,7.5,332.3,0.71,0.1,8.5
"22/02/12","18:00",0.0,10.1,48.2,1018.2,3.7,1.3,4.4,27.6,0.06,-0.3,8.4
"22/02/12","19:00",0.0,7.0,60.5,1018.5,326.5,1.7,3.9,341.1,0.00,-0.1,8.2
"22/02/12","20:00",0.0,4.6,71.3,1018.2,304.3,1.7,3.1,314.9,0.00,-0.1,8.0
"22/02/12","21:00",0.0,3.6,75.3,1018.0,294.3,1.8,3.5,305.0,0.00,-0.3,7.9
"22/02/12","22:00",0.0,3.4,79.0,1018.2,318.9,2.7,4.7,308.4,0.00,0.1,7.4
"22/02/12","23:00",0.0,3.5,79.2,1018.5,333.0,3.7,7.2,312.9,0.00,0.3,7.0
"22/02/12","24:00",0.0,3.3,79.9,1018.2,290.5,1.1,5.7,332.3,0.00,0.2,7.0
"22/02/13","01:00",0.0,3.4,80.5,1018.2,313.6,4.1,5.8,317.7,0.00,0.4,6.8
"22/02/13","02:00",0.0,1.8,83.6,1018.0,82.8,0.8,5.5,317.2,0.00,-0.6,6.5
"22/02/13","03:00",0.0,1.5,88.0,1016.6,311.7,3.5,5.2,327.7,0.00,-0.2,6.3
"22/02/13","04:00",0.0,1.5,89.2,1016.4,326.4,2.8,5.4,318.6,0.00,0.0,6.0
"22/02/13","05:00",0.0,0.4,90.1,1015.6,318.3,2.1,3.3,324.8,0.00,-1.0,5.9
"22/02/13","06:00",0.0,1.9,88.5,1015.9,325.2,3.9,6.5,319.9,0.00,0.2,5.9
"22/02/13","07:00",0.0,2.5,85.9,1016.4,331.4,4.5,7.8,327.2,0.00,0.4,5.6
"22/02/13","08:00",0.0,2.8,84.0,1016.6,308.5,3.0,7.8,337.3,0.00,0.4,5.8
"22/02/13","09:00",0.0,3.8,81.7,1016.8,312.5,4.0,6.0,315.5,0.18,1.0,5.7
"22/02/13","10:00",0.0,5.1,76.9,1017.1,322.3,3.4,5.2,312.8,0.39,1.4,5.7
"22/02/13","11:00",0.0,6.2,72.0,1017.3,292.3,2.3,4.3,310.1,0.57,1.6,5.7
"22/02/13","12:00",0.0,6.8,70.0,1017.5,295.7,1.8,4.3,343.3,0.36,1.8,6.0
"22/02/13","13:00",0.2,6.2,76.2,1016.4,125.7,1.1,3.7,114.3,0.38,2.4,6.1
"22/02/13","14:00",1.0,5.9,81.6,1015.6,351.8,0.6,2.7,266.8,0.28,3.0,6.1
"22/02/13","15:00",1.6,5.0,86.5,1014.7,240.4,0.7,2.7,319.8,0.17,3.0,6.4
"22/02/13","16:00",1.2,5.1,89.8,1013.8,0.0,0.0,1.4,309.0,0.15,3.6,6.6
"22/02/13","17:00",1.0,4.3,92.5,1014.0,303.2,1.8,1.9,285.0,0.03,3.2,6.7
"22/02/13","18:00",0.8,4.0,94.6,1012.8,291.6,1.5,2.8,310.5,0.00,3.3,6.6
"22/02/13","19:00",1.2,3.9,95.9,1013.3,296.8,1.6,2.6,308.2,0.00,3.3,6.6
"22/02/13","20:00",0.4,3.9,96.7,1013.5,0.0,0.0,1.6,312.3,0.00,3.5,6.7
"22/02/13","21:00",0.2,3.9,97.3,1013.0,0.0,0.0,1.1,344.4,0.00,3.6,6.4
"22/02/13","22:00",0.0,3.8,97.8,1012.6,0.0,0.0,1.3,291.0,0.00,3.5,6.3
"22/02/13","23:00",0.0,4.2,97.6,1012.3,302.7,1.8,2.4,326.4,0.00,3.9,6.3
"22/02/13","24:00",0.2,4.2,97.9,1012.3,296.0,0.8,1.9,300.1,0.00,3.9,6.3
"22/02/14","01:00",0.0,4.2,97.9,1012.3,236.9,0.8,4.1,323.5,0.00,3.9,6.2
"22/02/14","02:00",0.0,3.8,98.1,1011.9,289.0,1.3,2.5,295.7,0.00,3.6,6.4
"22/02/14","03:00",0.0,4.5,98.0,1011.4,319.6,3.9,6.4,323.9,0.00,4.3,6.1
"22/02/14","04:00",0.0,5.3,95.3,1011.4,311.1,4.5,8.5,312.0,0.00,4.7,6.0
"22/02/14","05:00",0.0,5.6,84.3,1011.9,325.2,4.6,7.9,325.2,0.00,3.2,6.2
"22/02/14","06:00",0.0,5.3,79.2,1011.6,266.7,2.3,6.8,305.9,0.00,2.0,6.0
"22/02/14","07:00",0.0,5.4,74.4,1012.3,301.8,2.2,7.3,334.9,0.00,1.3,6.1
"22/02/14","08:00",0.0,5.6,70.8,1013.3,339.4,3.0,7.1,318.7,0.01,0.8,6.0
"22/02/14","09:00",0.0,6.4,67.5,1013.5,344.8,2.3,8.1,333.8,0.28,0.9,6.1
"22/02/14","10:00",0.0,7.3,65.4,1014.0,355.0,2.5,7.4,338.0,0.73,1.3,6.0
"22/02/14","11:00",0.0,8.7,59.9,1014.0,347.7,2.0,7.4,334.8,1.27,1.4,5.9
"22/02/14","12:00",0.0,9.3,56.4,1014.0,345.1,2.6,6.2,330.7,1.55,1.1,6.4